Overview Statistics Trail Chart Weather Telemetry Raw packets
 

This is the latest recevied weather packets stored in our database for station/object VE7PRT-1. If no packets are shown the sender has not sent any weather packets the latest 10 day(s).

<< 1 2 3 4 5 6 7 >>
Time Temp. Humidity Pressure Rain* Wind** Luminosity Snow
1788563606 18.33° C 85% 1015.3 hPa 0 mm - - -
1788562821 17.78° C 86% 1015.3 hPa 0 mm - - -
1788561971 17.78° C 88% 1015.3 hPa 0 mm - - -
1788561081 17.22° C 88% 1015.3 hPa 0 mm - - -
1788560281 16.67° C 90% 1015.2 hPa 0 mm - - -
1788559485 16.11° C 91% 1015.1 hPa 0 mm - - -
1788558626 16.67° C 90% 1015.1 hPa 0 mm - - -
1788557756 16.67° C 88% 1014.8 hPa 0 mm - - -
1788557049 17.22° C 88% 1014.6 hPa 0 mm - - -
1788557016 17.22° C 88% 1014.6 hPa 0 mm - - -
1788556130 16.67° C 88% 1014.6 hPa 0 mm - - -
1788555376 16.67° C 87% 1014.6 hPa 0 mm - - -
1788554552 16.67° C 92% 1014.7 hPa 0 mm - - -
1788553760 16.67° C 92% 1014.6 hPa 0 mm - - -
1788552996 16.67° C 95% 1014.8 hPa 0 mm - - -
1788552186 16.67° C 97% 1014.8 hPa 0 mm - - -
1788551380 16.11° C 97% 1014.8 hPa 0 mm - - -
1788550644 16.67° C 97% 1014.7 hPa 0 mm - - -
1788549751 16.67° C 97% 1014.7 hPa 0 mm - - -
1788548873 16.11° C 97% 1014.6 hPa 0 mm - - -
1788548061 16.11° C 98% 1014.4 hPa 0 mm - - -
1788547244 15.56° C 98% 1014.2 hPa 0 mm - - -
1788546376 15.56° C 98% 1014.1 hPa 0 mm - - -
1788545651 15.56° C 98% 1014 hPa 0 mm - - -
1788544926 15.56° C 98% 1014.1 hPa 0 mm - - -

* Rain latest hour (hover to see other rain measurements)
** Current wind speed in m/s (hover to see current wind gust speed)